Location: Newark
(47.5833°N, 8.1500°E)
Time: 08:09:17
(UTC+00:00)

Vanguard 1 - Pass Details

Date: 03 November 2020
Orbit: 650 x 3833 km, 34.2° (Epoch: 29 November)

Event Time Altitude Azimuth Distance (km) Brightness Sun altitude
Rises 18:35:50 0° 279° (W) 7,731 16.0 -25.5°
Reaches altitude 10° 18:47:43 10° 252° (WSW) 5,999 14.8 -27.5°
Maximum altitude 18:51:33 11° 239° (WSW) 5,595 14.5 -28.2°
Drops below altitude 10° 18:55:03 10° 226° (SW) 5,356 14.2 -28.8°
Sets 19:03:17 0° 195° (SSW) 5,472 13.9 -30.1°
